| time (UTC) | temp F | wind direction | speed MPH | gust MPH | rain 1hr in | rain 24hr in | rain mn in | humidity % | barometer mb |
| 20260508014023 | 65 | 207 | 7.0 | 13.0 | 0.00 | 0.00 | 0.00 | 40 | 1008.1 |
| 20260508013522 | 66 | 169 | 7.0 | 12.0 | 0.00 | 0.00 | 0.00 | 40 | 1008.0 |
| 20260508013037 | 66 | 157 | 6.0 | 11.0 | 0.00 | 0.00 | 0.00 | 39 | 1008.0 |
| 20260508012525 | 67 | 162 | 6.0 | 11.0 | 0.00 | 0.00 | 0.00 | 38 | 1007.9 |
| 20260508012023 | 68 | 144 | 6.0 | 11.0 | 0.00 | 0.00 | 0.00 | 38 | 1008.0 |
| 20260508011532 | 68 | 189 | 7.0 | 12.0 | 0.00 | 0.00 | 0.00 | 37 | 1007.9 |
| 20260508011022 | 69 | 188 | 7.0 | 12.0 | 0.00 | 0.00 | 0.00 | 36 | 1007.9 |
| 20260508010523 | 70 | 180 | 6.0 | 13.0 | 0.00 | 0.00 | 0.00 | 36 | 1007.9 |
| 20260508010048 | 71 | 180 | 8.0 | 13.0 | 0.00 | 0.00 | 0.00 | 35 | 1007.8 |
| 20260508005521 | 71 | 184 | 7.0 | 12.0 | 0.00 | 0.00 | 0.00 | 34 | 1007.8 |
| 20260508005023 | 72 | 183 | 7.0 | 12.0 | 0.00 | 0.00 | 0.00 | 34 | 1007.8 |
| 20260508004537 | 73 | 190 | 6.0 | 12.0 | 0.00 | 0.00 | 0.00 | 33 | 1007.8 |
| 20260508004021 | 73 | 173 | 7.0 | 12.0 | 0.00 | 0.00 | 0.00 | 32 | 1007.8 |
| 20260508003520 | 74 | 182 | 6.0 | 13.0 | 0.00 | 0.00 | 0.00 | 32 | 1007.8 |
| 20260508003039 | 74 | 196 | 8.0 | 16.0 | 0.00 | 0.00 | 0.00 | 31 | 1007.9 |
| 20260508002522 | 74 | 205 | 9.0 | 17.0 | 0.00 | 0.00 | 0.00 | 31 | 1007.9 |
| 20260508002021 | 75 | 188 | 7.0 | 17.0 | 0.00 | 0.00 | 0.00 | 31 | 1007.8 |
| 20260508001537 | 75 | 188 | 8.0 | 18.0 | 0.00 | 0.00 | 0.00 | 31 | 1007.9 |
| 20260508001023 | 75 | 169 | 10.0 | 18.0 | 0.00 | 0.00 | 0.00 | 30 | 1007.9 |
| 20260508000529 | 75 | 197 | 7.0 | 15.0 | 0.00 | 0.00 | 0.00 | 29 | 1007.9 |
| 20260508000038 | 75 | 268 | 6.0 | 13.0 | 0.00 | 0.00 | 0.00 | 29 | 1007.9 |
| 20260507235523 | 75 | 178 | 6.0 | 15.0 | 0.00 | 0.00 | 0.00 | 30 | 1008.1 |
| 20260507235020 | 75 | 216 | 8.0 | 17.0 | 0.00 | 0.00 | 0.00 | 29 | 1008.0 |
| 20260507234542 | 76 | 206 | 10.0 | 19.0 | 0.00 | 0.00 | 0.00 | 29 | 1008.0 |
| 20260507234021 | 76 | 202 | 7.0 | 19.0 | 0.00 | 0.00 | 0.00 | 29 | 1007.9 |
| 20260507233520 | 76 | 201 | 10.0 | 19.0 | 0.00 | 0.00 | 0.00 | 28 | 1008.0 |
| 20260507233038 | 76 | 213 | 6.0 | 15.0 | 0.00 | 0.00 | 0.00 | 30 | 1008.0 |
| 20260507232520 | 76 | 240 | 7.0 | 15.0 | 0.00 | 0.00 | 0.00 | 29 | 1008.1 |
| 20260507232020 | 76 | 237 | 8.0 | 17.0 | 0.00 | 0.00 | 0.00 | 29 | 1008.2 |
| 20260507231543 | 76 | 217 | 6.0 | 17.0 | 0.00 | 0.00 | 0.00 | 29 | 1008.2 |
| 20260507231020 | 76 | 194 | 7.0 | 17.0 | 0.00 | 0.00 | 0.00 | 29 | 1008.2 |
| 20260507230522 | 76 | 242 | 7.0 | 15.0 | 0.00 | 0.00 | 0.00 | 30 | 1008.2 |
| 20260507230041 | 77 | 192 | 8.0 | 15.0 | 0.00 | 0.00 | 0.00 | 30 | 1008.4 |
| 20260507225524 | 76 | 225 | 6.0 | 18.0 | 0.00 | 0.00 | 0.00 | 32 | 1008.5 |
| 20260507225023 | 76 | 225 | 8.0 | 18.0 | 0.00 | 0.00 | 0.00 | 29 | 1008.5 |
| 20260507224536 | 76 | 211 | 8.0 | 18.0 | 0.00 | 0.00 | 0.00 | 30 | 1008.5 |
| 20260507224021 | 76 | 219 | 7.0 | 18.0 | 0.00 | 0.00 | 0.00 | 31 | 1008.7 |
| 20260507223523 | 76 | 244 | 8.0 | 17.0 | 0.00 | 0.00 | 0.00 | 31 | 1008.6 |
| 20260507223039 | 76 | 189 | 7.0 | 17.0 | 0.00 | 0.00 | 0.00 | 30 | 1008.7 |
| 20260507222521 | 76 | 241 | 10.0 | 23.0 | 0.00 | 0.00 | 0.00 | 29 | 1008.7 |
| 20260507222020 | 76 | 220 | 10.0 | 23.0 | 0.00 | 0.00 | 0.00 | 30 | 1008.7 |
| 20260507221538 | 76 | 255 | 11.0 | 23.0 | 0.00 | 0.00 | 0.00 | 29 | 1008.9 |
| 20260507221020 | 76 | 238 | 9.0 | 16.0 | 0.00 | 0.00 | 0.00 | 30 | 1009.0 |
| 20260507220520 | 76 | 236 | 8.0 | 14.0 | 0.00 | 0.00 | 0.00 | 33 | 1008.9 |
| 20260507220039 | 75 | 228 | 7.0 | 15.0 | 0.00 | 0.00 | 0.00 | 31 | 1009.0 |
| 20260507215521 | 76 | 254 | 9.0 | 15.0 | 0.00 | 0.00 | 0.00 | 30 | 1009.1 |
| 20260507215021 | 76 | 213 | 8.0 | 15.0 | 0.00 | 0.00 | 0.00 | 30 | 1009.3 |
| 20260507214545 | 76 | 209 | 9.0 | 15.0 | 0.00 | 0.00 | 0.00 | 30 | 1009.1 |
| 20260507214022 | 76 | 200 | 6.0 | 15.0 | 0.00 | 0.00 | 0.00 | 31 | 1009.1 |
| 20260507213523 | 75 | 202 | 9.0 | 18.0 | 0.00 | 0.00 | 0.00 | 32 | 1009.2 |
| 20260507213037 | 75 | 232 | 8.0 | 19.0 | 0.00 | 0.00 | 0.00 | 30 | 1009.2 |
| 20260507212524 | 76 | 248 | 9.0 | 19.0 | 0.00 | 0.00 | 0.00 | 31 | 1009.5 |
| 20260507212023 | 75 | 241 | 9.0 | 19.0 | 0.00 | 0.00 | 0.00 | 32 | 1009.4 |
| 20260507211542 | 75 | 191 | 8.0 | 18.0 | 0.00 | 0.00 | 0.00 | 32 | 1009.5 |
| 20260507211022 | 74 | 219 | 10.0 | 20.0 | 0.00 | 0.00 | 0.00 | 32 | 1009.6 |
| 20260507210523 | 75 | 217 | 8.0 | 20.0 | 0.00 | 0.00 | 0.00 | 32 | 1009.7 |
| 20260507210040 | 75 | 234 | 9.0 | 17.0 | 0.00 | 0.00 | 0.00 | 31 | 1009.9 |
| 20260507205523 | 74 | 218 | 10.0 | 19.0 | 0.00 | 0.00 | 0.00 | 33 | 1010.0 |
| 20260507205022 | 74 | 167 | 10.0 | 19.0 | 0.00 | 0.00 | 0.00 | 32 | 1010.0 |
| 20260507204539 | 74 | 202 | 8.0 | 14.0 | 0.00 | 0.00 | 0.00 | 34 | 1010.2 |
| 20260507204022 | 74 | 233 | 9.0 | 17.0 | 0.00 | 0.00 | 0.00 | 34 | 1010.1 |
| 20260507203523 | 74 | 289 | 8.0 | 17.0 | 0.00 | 0.00 | 0.00 | 32 | 1010.4 |
| 20260507203038 | 74 | 268 | 10.0 | 18.0 | 0.00 | 0.00 | 0.00 | 33 | 1010.5 |
| 20260507202522 | 74 | 260 | 6.0 | 18.0 | 0.00 | 0.00 | 0.00 | 33 | 1010.6 |
| 20260507202023 | 74 | 275 | 10.0 | 18.0 | 0.00 | 0.00 | 0.00 | 33 | 1010.8 |
| 20260507201542 | 74 | 241 | 11.0 | 18.0 | 0.00 | 0.00 | 0.00 | 34 | 1011.0 |
| 20260507201023 | 73 | 248 | 5.0 | 18.0 | 0.00 | 0.00 | 0.00 | 33 | 1011.0 |
| 20260507200523 | 73 | 219 | 8.0 | 21.0 | 0.00 | 0.00 | 0.00 | 34 | 1011.0 |
| 20260507200037 | 73 | 213 | 9.0 | 21.0 | 0.00 | 0.00 | 0.00 | 32 | 1011.1 |
| 20260507195523 | 73 | 229 | 11.0 | 21.0 | 0.00 | 0.00 | 0.00 | 33 | 1011.2 |
| 20260507195023 | 72 | 283 | 9.0 | 19.0 | 0.00 | 0.00 | 0.00 | 34 | 1011.2 |
| 20260507194540 | 72 | 217 | 8.0 | 19.0 | 0.00 | 0.00 | 0.00 | 33 | 1011.2 |
| 20260507194023 | 72 | 227 | 8.0 | 19.0 | 0.00 | 0.00 | 0.00 | 36 | 1011.4 |
| 20260507193523 | 72 | 229 | 9.0 | 19.0 | 0.00 | 0.00 | 0.00 | 33 | 1011.5 |
| 20260507193040 | 72 | 207 | 9.0 | 20.0 | 0.00 | 0.00 | 0.00 | 36 | 1011.5 |
| 20260507192522 | 72 | 244 | 6.0 | 20.0 | 0.00 | 0.00 | 0.00 | 36 | 1011.6 |
| 20260507192022 | 71 | 237 | 6.0 | 15.0 | 0.00 | 0.00 | 0.00 | 36 | 1011.7 |
| 20260507191538 | 71 | 232 | 7.0 | 16.0 | 0.00 | 0.00 | 0.00 | 36 | 1011.8 |
| 20260507191022 | 71 | 227 | 8.0 | 21.0 | 0.00 | 0.00 | 0.00 | 35 | 1011.8 |
| 20260507190523 | 70 | 231 | 8.0 | 21.0 | 0.00 | 0.00 | 0.00 | 36 | 1011.7 |
| 20260507190038 | 70 | 248 | 11.0 | 21.0 | 0.00 | 0.00 | 0.00 | 38 | 1011.8 |
| 20260507185522 | 70 | 207 | 9.0 | 21.0 | 0.00 | 0.00 | 0.00 | 38 | 1011.9 |
| 20260507185022 | 70 | 219 | 12.0 | 21.0 | 0.00 | 0.00 | 0.00 | 37 | 1012.0 |
| 20260507184538 | 70 | 239 | 6.0 | 18.0 | 0.00 | 0.00 | 0.00 | 39 | 1012.1 |
| 20260507184021 | 69 | 234 | 11.0 | 20.0 | 0.00 | 0.00 | 0.00 | 38 | 1012.1 |
| 20260507183524 | 69 | 286 | 12.0 | 23.0 | 0.00 | 0.00 | 0.00 | 38 | 1012.3 |
| 20260507183045 | 69 | 240 | 10.0 | 23.0 | 0.00 | 0.00 | 0.00 | 37 | 1012.3 |
| 20260507182523 | 69 | 269 | 9.0 | 20.0 | 0.00 | 0.00 | 0.00 | 40 | 1012.4 |
| 20260507182022 | 69 | 256 | 12.0 | 20.0 | 0.00 | 0.00 | 0.00 | 40 | 1012.6 |
| 20260507181542 | 68 | 245 | 8.0 | 21.0 | 0.00 | 0.00 | 0.00 | 39 | 1012.8 |
| 20260507181021 | 68 | 233 | 13.0 | 21.0 | 0.00 | 0.00 | 0.00 | 41 | 1012.8 |
| 20260507180521 | 68 | 234 | 12.0 | 21.0 | 0.00 | 0.00 | 0.00 | 40 | 1013.0 |
| 20260507180050 | 68 | 239 | 9.0 | 21.0 | 0.00 | 0.00 | 0.00 | 44 | 1013.0 |
| 20260507175520 | 68 | 200 | 8.0 | 18.0 | 0.00 | 0.00 | 0.00 | 44 | 1013.1 |
| 20260507175020 | 67 | 228 | 9.0 | 18.0 | 0.00 | 0.00 | 0.00 | 44 | 1013.2 |
| 20260507174538 | 68 | 192 | 7.0 | 18.0 | 0.00 | 0.00 | 0.00 | 43 | 1013.3 |
| 20260507174020 | 67 | 257 | 11.0 | 18.0 | 0.00 | 0.00 | 0.00 | 44 | 1013.2 |
| 20260507173520 | 67 | 234 | 9.0 | 22.0 | 0.00 | 0.00 | 0.00 | 45 | 1013.5 |
| 20260507173042 | 66 | 255 | 14.0 | 22.0 | 0.00 | 0.00 | 0.00 | 46 | 1013.5 |
| 20260507172521 | 67 | 259 | 11.0 | 21.0 | 0.00 | 0.00 | 0.00 | 44 | 1013.6 |
| 20260507172022 | 67 | 276 | 11.0 | 20.0 | 0.00 | 0.00 | 0.00 | 46 | 1013.7 |
| 20260507171544 | 66 | 215 | 11.0 | 23.0 | 0.00 | 0.00 | 0.00 | 46 | 1013.7 |
| 20260507171021 | 65 | 244 | 9.0 | 23.0 | 0.00 | 0.00 | 0.00 | 47 | 1013.8 |
| 20260507170523 | 65 | 230 | 11.0 | 20.0 | 0.00 | 0.00 | 0.00 | 47 | 1014.0 |
| 20260507170037 | 66 | 234 | 10.0 | 18.0 | 0.00 | 0.00 | 0.00 | 47 | 1014.2 |
| 20260507165522 | 65 | 198 | 9.0 | 20.0 | 0.00 | 0.00 | 0.00 | 48 | 1014.1 |
| 20260507165021 | 64 | 205 | 10.0 | 24.0 | 0.00 | 0.00 | 0.00 | 48 | 1014.2 |
| 20260507164546 | 64 | 212 | 11.0 | 24.0 | 0.00 | 0.00 | 0.00 | 48 | 1014.2 |
| 20260507164021 | 64 | 220 | 12.0 | 24.0 | 0.00 | 0.00 | 0.00 | 49 | 1014.3 |
| 20260507163525 | 64 | 259 | 12.0 | 23.0 | 0.00 | 0.00 | 0.00 | 48 | 1014.3 |
| 20260507163045 | 64 | 238 | 13.0 | 23.0 | 0.00 | 0.00 | 0.00 | 48 | 1014.4 |
| 20260507162521 | 64 | 181 | 12.0 | 20.0 | 0.00 | 0.00 | 0.00 | 49 | 1014.6 |
| 20260507162021 | 63 | 262 | 10.0 | 21.0 | 0.00 | 0.00 | 0.00 | 51 | 1014.4 |
| 20260507161542 | 62 | 258 | 14.0 | 21.0 | 0.00 | 0.00 | 0.00 | 50 | 1014.5 |
| 20260507161023 | 62 | 231 | 11.0 | 21.0 | 0.00 | 0.00 | 0.00 | 51 | 1014.5 |
| 20260507160521 | 62 | 235 | 11.0 | 21.0 | 0.00 | 0.00 | 0.00 | 51 | 1014.5 |
| 20260507160046 | 62 | 226 | 11.0 | 23.0 | 0.00 | 0.00 | 0.00 | 52 | 1014.6 |
| 20260507155523 | 62 | 213 | 11.0 | 23.0 | 0.00 | 0.00 | 0.00 | 53 | 1014.6 |
| 20260507155020 | 62 | 229 | 13.0 | 23.0 | 0.00 | 0.00 | 0.00 | 52 | 1014.7 |
| 20260507154538 | 61 | 265 | 10.0 | 20.0 | 0.00 | 0.00 | 0.00 | 55 | 1014.7 |
| 20260507154023 | 61 | 224 | 9.0 | 19.0 | 0.00 | 0.00 | 0.00 | 53 | 1014.8 |
| 20260507153522 | 61 | 233 | 9.0 | 22.0 | 0.00 | 0.00 | 0.00 | 54 | 1014.9 |
| 20260507153043 | 61 | 249 | 12.0 | 22.0 | 0.00 | 0.00 | 0.00 | 55 | 1014.9 |
| 20260507152522 | 60 | 273 | 11.0 | 17.0 | 0.00 | 0.00 | 0.00 | 56 | 1014.9 |
| 20260507152021 | 60 | 264 | 9.0 | 19.0 | 0.00 | 0.00 | 0.00 | 57 | 1014.9 |
| 20260507151541 | 60 | 287 | 8.0 | 19.0 | 0.00 | 0.00 | 0.00 | 58 | 1015.0 |
| 20260507151021 | 60 | 246 | 11.0 | 17.0 | 0.00 | 0.00 | 0.00 | 59 | 1015.1 |
| 20260507150520 | 59 | 229 | 10.0 | 17.0 | 0.00 | 0.00 | 0.00 | 60 | 1015.3 |
| 20260507150038 | 58 | 210 | 9.0 | 20.0 | 0.00 | 0.00 | 0.00 | 62 | 1015.3 |
| 20260507145521 | 58 | 264 | 11.0 | 20.0 | 0.00 | 0.00 | 0.00 | 62 | 1015.5 |
| 20260507145025 | 57 | 231 | 11.0 | 20.0 | 0.00 | 0.00 | 0.00 | 63 | 1015.4 |
| 20260507144536 | 57 | 273 | 7.0 | 19.0 | 0.00 | 0.00 | 0.00 | 65 | 1015.4 |
| 20260507144021 | 57 | 271 | 9.0 | 19.0 | 0.00 | 0.00 | 0.00 | 64 | 1015.5 |
| 20260507143520 | 56 | 271 | 10.0 | 19.0 | 0.00 | 0.00 | 0.00 | 64 | 1015.5 |
| 20260507143042 | 56 | 250 | 10.0 | 15.0 | 0.00 | 0.00 | 0.00 | 66 | 1015.5 |
| 20260507142522 | 56 | 253 | 10.0 | 15.0 | 0.00 | 0.00 | 0.00 | 67 | 1015.5 |
| 20260507142023 | 55 | 245 | 8.0 | 14.0 | 0.00 | 0.00 | 0.00 | 67 | 1015.6 |
| 20260507141543 | 55 | 250 | 8.0 | 14.0 | 0.00 | 0.00 | 0.00 | 68 | 1015.6 |
| 20260507141024 | 55 | 277 | 7.0 | 13.0 | 0.00 | 0.00 | 0.00 | 70 | 1015.6 |
| 20260507140524 | 54 | 242 | 8.0 | 13.0 | 0.00 | 0.00 | 0.00 | 70 | 1015.7 |
| 20260507140036 | 54 | 237 | 6.0 | 13.0 | 0.00 | 0.00 | 0.00 | 73 | 1015.6 |
| 20260507135521 | 53 | 250 | 7.0 | 13.0 | 0.00 | 0.00 | 0.00 | 75 | 1015.9 |
| 20260507135021 | 53 | 340 | 6.0 | 11.0 | 0.00 | 0.00 | 0.00 | 77 | 1015.8 |
| 20260507134540 | 52 | 254 | 6.0 | 11.0 | 0.00 | 0.00 | 0.00 | 79 | 1015.8 |
| 20260507134024 | 52 | 259 | 5.0 | 12.0 | 0.00 | 0.00 | 0.00 | 82 | 1015.8 |
| 20260507133521 | 51 | 258 | 6.0 | 12.0 | 0.00 | 0.00 | 0.00 | 85 | 1015.9 |
| 20260507133039 | 50 | 240 | 6.0 | 9.0 | 0.00 | 0.00 | 0.00 | 87 | 1016.0 |
| 20260507132524 | 50 | 259 | 4.0 | 9.0 | 0.00 | 0.00 | 0.00 | 89 | 1016.0 |
| 20260507132020 | 49 | 240 | 3.0 | 7.0 | 0.00 | 0.00 | 0.00 | 90 | 1016.0 |
| 20260507131538 | 48 | 251 | 3.0 | 7.0 | 0.00 | 0.00 | 0.00 | 91 | 1016.1 |
| 20260507131021 | 48 | 265 | 4.0 | 7.0 | 0.00 | 0.00 | 0.00 | 91 | 1016.0 |
| 20260507130522 | 47 | 232 | 2.0 | 7.0 | 0.00 | 0.00 | 0.00 | 91 | 1016.0 |
| 20260507130049 | 46 | 211 | 2.0 | 4.0 | 0.00 | 0.00 | 0.00 | 91 | 1016.0 |
| 20260507125522 | 46 | 192 | 1.0 | 4.0 | 0.00 | 0.00 | 0.00 | 91 | 1015.9 |
| 20260507125021 | 45 | 205 | 1.0 | 4.0 | 0.00 | 0.00 | 0.00 | 91 | 1015.9 |
| 20260507124555 | 44 | 205 | 2.0 | 4.0 | 0.00 | 0.00 | 0.00 | 91 | 1015.9 |
| 20260507124021 | 43 | 201 | 2.0 | 3.0 | 0.00 | 0.00 | 0.00 | 90 | 1015.8 |
| 20260507123525 | 42 | 204 | 1.0 | 4.0 | 0.00 | 0.00 | 0.00 | 90 | 1015.8 |
| 20260507123036 | 42 | 225 | 1.0 | 4.0 | 0.00 | 0.00 | 0.00 | 89 | 1015.9 |
| 20260507122520 | 41 | 0 | 1.0 | 3.0 | 0.00 | 0.00 | 0.00 | 89 | 1015.9 |
| 20260507122021 | 41 | 248 | 1.0 | 3.0 | 0.00 | 0.00 | 0.00 | 88 | 1015.8 |
| 20260507121540 | 41 | 249 | 1.0 | 3.0 | 0.00 | 0.00 | 0.00 | 87 | 1015.7 |
| 20260507121021 | 41 | 249 | 1.0 | 3.0 | 0.00 | 0.00 | 0.00 | 87 | 1015.8 |
| 20260507120524 | 41 | 249 | 1.0 | 3.0 | 0.00 | 0.00 | 0.00 | 87 | 1015.7 |
| 20260507120039 | 41 | 249 | 1.0 | 3.0 | 0.00 | 0.00 | 0.00 | 86 | 1015.6 |
| 20260507115521 | 41 | 250 | 1.0 | 2.0 | 0.00 | 0.00 | 0.00 | 86 | 1015.5 |
| 20260507115026 | 41 | 250 | 1.0 | 2.0 | 0.00 | 0.00 | 0.00 | 86 | 1015.4 |
| 20260507114546 | 41 | 250 | 1.0 | 3.0 | 0.00 | 0.00 | 0.00 | 86 | 1015.3 |
| 20260507114021 | 41 | 250 | 1.0 | 3.0 | 0.00 | 0.00 | 0.00 | 86 | 1015.4 |
| 20260507113521 | 41 | 250 | 1.0 | 3.0 | 0.00 | 0.00 | 0.00 | 86 | 1015.3 |
| 20260507113037 | 41 | 291 | 1.0 | 3.0 | 0.00 | 0.00 | 0.00 | 85 | 1015.3 |
| 20260507112521 | 41 | 291 | 1.0 | 3.0 | 0.00 | 0.00 | 0.00 | 85 | 1015.3 |
| 20260507112020 | 42 | 291 | 1.0 | 2.0 | 0.00 | 0.00 | 0.00 | 84 | 1015.4 |
| 20260507111537 | 42 | 0 | 1.0 | 2.0 | 0.00 | 0.00 | 0.00 | 84 | 1015.3 |
| 20260507111021 | 42 | 291 | 1.0 | 3.0 | 0.00 | 0.00 | 0.00 | 84 | 1015.2 |
| 20260507110521 | 42 | 291 | 1.0 | 3.0 | 0.00 | 0.00 | 0.00 | 84 | 1015.3 |
| 20260507110043 | 42 | 0 | 0.0 | 0.0 | 0.00 | 0.00 | 0.00 | 83 | 1015.2 |
| 20260507105520 | 42 | 0 | 0.0 | 0.0 | 0.00 | 0.00 | 0.00 | 83 | 1015.3 |
| 20260507105021 | 43 | 0 | 0.0 | 0.0 | 0.00 | 0.00 | 0.00 | 83 | 1015.4 |
| 20260507104548 | 43 | 0 | 0.0 | 2.0 | 0.00 | 0.00 | 0.00 | 83 | 1015.4 |
| 20260507104024 | 43 | 0 | 0.0 | 2.0 | 0.00 | 0.00 | 0.00 | 83 | 1015.4 |
| 20260507103521 | 43 | 0 | 0.0 | 3.0 | 0.00 | 0.00 | 0.00 | 83 | 1015.5 |
| 20260507103038 | 43 | 291 | 2.0 | 3.0 | 0.00 | 0.00 | 0.00 | 82 | 1015.6 |
| 20260507102521 | 44 | 291 | 1.0 | 3.0 | 0.00 | 0.00 | 0.00 | 82 | 1015.5 |
| 20260507102021 | 44 | 291 | 1.0 | 2.0 | 0.00 | 0.00 | 0.00 | 82 | 1015.6 |
| 20260507101539 | 44 | 291 | 1.0 | 3.0 | 0.00 | 0.00 | 0.00 | 81 | 1015.5 |
| 20260507101021 | 44 | 291 | 1.0 | 3.0 | 0.00 | 0.00 | 0.00 | 80 | 1015.6 |
| 20260507100520 | 44 | 291 | 1.0 | 3.0 | 0.00 | 0.00 | 0.00 | 79 | 1015.6 |
| 20260507100039 | 45 | 291 | 1.0 | 3.0 | 0.00 | 0.00 | 0.00 | 78 | 1015.6 |
| 20260507095521 | 45 | 292 | 2.0 | 3.0 | 0.00 | 0.00 | 0.00 | 79 | 1015.7 |
| 20260507095022 | 45 | 286 | 1.0 | 3.0 | 0.00 | 0.00 | 0.00 | 79 | 1015.7 |
| 20260507094537 | 46 | 286 | 1.0 | 3.0 | 0.00 | 0.00 | 0.00 | 79 | 1015.7 |
| 20260507094022 | 46 | 286 | 1.0 | 3.0 | 0.00 | 0.00 | 0.00 | 78 | 1015.8 |
| 20260507093522 | 46 | 0 | 1.0 | 3.0 | 0.00 | 0.00 | 0.00 | 76 | 1015.7 |
| 20260507093040 | 46 | 286 | 0.0 | 3.0 | 0.00 | 0.00 | 0.00 | 75 | 1015.8 |
| 20260507092521 | 47 | 0 | 0.0 | 0.0 | 0.00 | 0.00 | 0.00 | 75 | 1015.7 |
| 20260507092020 | 47 | 0 | 0.0 | 0.0 | 0.00 | 0.00 | 0.00 | 75 | 1015.7 |
| 20260507091543 | 47 | 0 | 0.0 | 0.0 | 0.00 | 0.00 | 0.00 | 75 | 1015.7 |
| 20260507091021 | 48 | 0 | 0.0 | 0.0 | 0.00 | 0.00 | 0.00 | 75 | 1015.7 |
| 20260507090521 | 48 | 0 | 0.0 | 0.0 | 0.00 | 0.00 | 0.00 | 75 | 1015.6 |
| 20260507090037 | 48 | 0 | 0.0 | 0.0 | 0.00 | 0.00 | 0.00 | 76 | 1015.6 |
| 20260507085520 | 48 | 0 | 0.0 | 0.0 | 0.00 | 0.00 | 0.00 | 76 | 1015.6 |
| 20260507085021 | 49 | 0 | 0.0 | 0.0 | 0.00 | 0.00 | 0.00 | 77 | 1015.6 |
| 20260507084539 | 49 | 0 | 0.0 | 3.0 | 0.00 | 0.00 | 0.00 | 77 | 1015.8 |
| 20260507084020 | 49 | 0 | 0.0 | 3.0 | 0.00 | 0.00 | 0.00 | 77 | 1015.9 |
| 20260507083522 | 48 | 290 | 1.0 | 3.0 | 0.00 | 0.00 | 0.00 | 77 | 1016.0 |
| 20260507083038 | 48 | 296 | 1.0 | 4.0 | 0.00 | 0.00 | 0.00 | 77 | 1015.9 |
| 20260507082556 | 48 | 294 | 0.0 | 4.0 | 0.00 | 0.00 | 0.00 | 78 | 1015.8 |
| 20260507082023 | 48 | 0 | 1.0 | 4.0 | 0.00 | 0.00 | 0.00 | 78 | 1015.9 |
| 20260507081536 | 48 | 257 | 2.0 | 5.0 | 0.00 | 0.00 | 0.00 | 79 | 1015.9 |
| 20260507081021 | 48 | 247 | 3.0 | 6.0 | 0.00 | 0.00 | 0.00 | 79 | 1016.0 |
| 20260507080521 | 48 | 245 | 3.0 | 6.0 | 0.00 | 0.00 | 0.00 | 79 | 1016.0 |
| 20260507080038 | 48 | 238 | 3.0 | 6.0 | 0.00 | 0.00 | 0.00 | 80 | 1016.0 |
| 20260507075522 | 48 | 259 | 2.0 | 6.0 | 0.00 | 0.00 | 0.00 | 81 | 1016.1 |
| 20260507075021 | 48 | 267 | 1.0 | 3.0 | 0.00 | 0.00 | 0.00 | 81 | 1016.1 |
| 20260507074545 | 48 | 0 | 1.0 | 7.0 | 0.00 | 0.00 | 0.00 | 82 | 1016.1 |
| 20260507074021 | 48 | 290 | 2.0 | 7.0 | 0.00 | 0.00 | 0.00 | 82 | 1016.1 |
| 20260507073520 | 48 | 273 | 0.0 | 0.0 | 0.00 | 0.00 | 0.00 | 83 | 1016.2 |
| 20260507073043 | 47 | 0 | 0.0 | 0.0 | 0.00 | 0.00 | 0.00 | 83 | 1016.1 |
| 20260507072521 | 47 | 0 | 0.0 | 0.0 | 0.00 | 0.00 | 0.00 | 84 | 1016.1 |
| 20260507072020 | 47 | 0 | 0.0 | 0.0 | 0.00 | 0.00 | 0.00 | 84 | 1016.1 |
| 20260507071538 | 47 | 0 | 0.0 | 0.0 | 0.00 | 0.00 | 0.00 | 84 | 1016.1 |
| 20260507071021 | 47 | 0 | 0.0 | 0.0 | 0.00 | 0.00 | 0.00 | 84 | 1016.2 |
| 20260507070520 | 47 | 0 | 0.0 | 0.0 | 0.00 | 0.00 | 0.00 | 85 | 1016.2 |
| 20260507070041 | 47 | 0 | 0.0 | 0.0 | 0.00 | 0.00 | 0.00 | 85 | 1016.4 |
| 20260507065521 | 47 | 0 | 0.0 | 0.0 | 0.00 | 0.00 | 0.00 | 85 | 1016.4 |
| 20260507065021 | 47 | 0 | 0.0 | 0.0 | 0.00 | 0.00 | 0.00 | 85 | 1016.5 |
| 20260507064537 | 47 | 0 | 0.0 | 0.0 | 0.00 | 0.00 | 0.00 | 85 | 1016.5 |
| 20260507064022 | 47 | 0 | 0.0 | 0.0 | 0.00 | 0.00 | 0.00 | 85 | 1016.4 |
| 20260507063522 | 47 | 0 | 0.0 | 0.0 | 0.00 | 0.00 | 0.00 | 85 | 1016.5 |
| 20260507063051 | 47 | 0 | 0.0 | 0.0 | 0.00 | 0.00 | 0.00 | 85 | 1016.3 |
| 20260507062521 | 47 | 0 | 0.0 | 0.0 | 0.00 | 0.00 | 0.00 | 85 | 1016.4 |
| 20260507062021 | 47 | 0 | 0.0 | 0.0 | 0.00 | 0.00 | 0.00 | 85 | 1016.5 |
| 20260507061546 | 47 | 0 | 0.0 | 0.0 | 0.00 | 0.00 | 0.00 | 85 | 1016.3 |
| 20260507061020 | 47 | 0 | 0.0 | 0.0 | 0.00 | 0.00 | 0.00 | 84 | 1016.4 |
| 20260507060520 | 47 | 0 | 0.0 | 0.0 | 0.00 | 0.00 | 0.00 | 83 | 1016.6 |
| 20260507060045 | 47 | 0 | 0.0 | 0.0 | 0.00 | 0.00 | 0.00 | 83 | 1016.7 |
| 20260507055521 | 47 | 0 | 0.0 | 0.0 | 0.00 | 0.00 | 0.00 | 82 | 1016.7 |
| 20260507055020 | 47 | 0 | 0.0 | 0.0 | 0.00 | 0.00 | 0.00 | 82 | 1016.7 |
| 20260507054542 | 47 | 0 | 0.0 | 0.0 | 0.00 | 0.00 | 0.00 | 81 | 1016.7 |
| 20260507054020 | 47 | 0 | 0.0 | 0.0 | 0.00 | 0.00 | 0.00 | 80 | 1016.7 |
| 20260507053522 | 47 | 0 | 0.0 | 0.0 | 0.00 | 0.00 | 0.00 | 79 | 1016.7 |
| 20260507053039 | 47 | 0 | 0.0 | 0.0 | 0.00 | 0.00 | 0.00 | 79 | 1016.7 |
| 20260507052521 | 47 | 0 | 0.0 | 0.0 | 0.00 | 0.00 | 0.00 | 78 | 1016.8 |
| 20260507052112 | 47 | 0 | 0.0 | 0.0 | 0.00 | 0.00 | 0.00 | 78 | 1016.7 |
| 20260507051537 | 47 | 0 | 0.0 | 0.0 | 0.00 | 0.00 | 0.00 | 77 | 1016.6 |
| 20260507051021 | 47 | 0 | 0.0 | 0.0 | 0.00 | 0.00 | 0.00 | 77 | 1016.6 |
| 20260507050521 | 47 | 0 | 0.0 | 0.0 | 0.00 | 0.00 | 0.00 | 76 | 1016.5 |
| 20260507050037 | 47 | 0 | 0.0 | 0.0 | 0.00 | 0.00 | 0.00 | 73 | 1016.6 |
| 20260507045521 | 48 | 0 | 0.0 | 0.0 | 0.00 | 0.00 | 0.00 | 73 | 1016.6 |
| 20260507045021 | 48 | 0 | 0.0 | 0.0 | 0.00 | 0.00 | 0.00 | 73 | 1016.5 |
| 20260507044542 | 49 | 0 | 0.0 | 0.0 | 0.00 | 0.00 | 0.00 | 73 | 1016.6 |
| 20260507044020 | 49 | 0 | 0.0 | 0.0 | 0.00 | 0.00 | 0.00 | 74 | 1016.5 |
| 20260507043521 | 49 | 0 | 0.0 | 0.0 | 0.00 | 0.00 | 0.00 | 74 | 1016.5 |
| 20260507043039 | 50 | 0 | 0.0 | 0.0 | 0.00 | 0.00 | 0.00 | 73 | 1016.4 |
| 20260507042522 | 50 | 0 | 0.0 | 0.0 | 0.00 | 0.00 | 0.00 | 73 | 1016.4 |
| 20260507042020 | 50 | 0 | 0.0 | 0.0 | 0.00 | 0.00 | 0.00 | 72 | 1016.4 |
| 20260507041538 | 50 | 0 | 0.0 | 0.0 | 0.00 | 0.00 | 0.00 | 71 | 1016.5 |
| 20260507041021 | 51 | 0 | 0.0 | 0.0 | 0.00 | 0.00 | 0.00 | 70 | 1016.6 |
| 20260507040523 | 51 | 0 | 0.0 | 0.0 | 0.00 | 0.00 | 0.00 | 70 | 1016.5 |
| 20260507040037 | 51 | 0 | 0.0 | 0.0 | 0.00 | 0.00 | 0.00 | 68 | 1016.7 |
| 20260507035521 | 51 | 0 | 0.0 | 0.0 | 0.00 | 0.00 | 0.00 | 69 | 1016.7 |
| 20260507035023 | 52 | 0 | 0.0 | 0.0 | 0.00 | 0.00 | 0.00 | 68 | 1016.7 |
| 20260507034540 | 52 | 0 | 0.0 | 0.0 | 0.00 | 0.00 | 0.00 | 67 | 1016.6 |
| 20260507034022 | 52 | 0 | 0.0 | 0.0 | 0.00 | 0.00 | 0.00 | 67 | 1016.5 |
| 20260507033524 | 52 | 0 | 0.0 | 0.0 | 0.00 | 0.00 | 0.00 | 67 | 1016.6 |
| 20260507033035 | 52 | 0 | 0.0 | 0.0 | 0.00 | 0.00 | 0.00 | 67 | 1016.7 |
| 20260507032522 | 52 | 0 | 0.0 | 0.0 | 0.00 | 0.00 | 0.00 | 67 | 1016.5 |
| 20260507032021 | 52 | 0 | 0.0 | 0.0 | 0.00 | 0.00 | 0.00 | 66 | 1016.5 |
| 20260507031539 | 53 | 0 | 0.0 | 0.0 | 0.00 | 0.00 | 0.00 | 66 | 1016.5 |
| 20260507031022 | 53 | 0 | 0.0 | 0.0 | 0.00 | 0.00 | 0.00 | 66 | 1016.4 |
| 20260507030521 | 53 | 0 | 0.0 | 0.0 | 0.00 | 0.00 | 0.00 | 66 | 1016.4 |
| 20260507030042 | 53 | 0 | 0.0 | 0.0 | 0.00 | 0.00 | 0.00 | 65 | 1016.4 |
| 20260507025523 | 53 | 0 | 0.0 | 0.0 | 0.00 | 0.00 | 0.00 | 65 | 1016.3 |
| 20260507025021 | 53 | 0 | 0.0 | 0.0 | 0.00 | 0.00 | 0.00 | 66 | 1016.4 |
| 20260507024538 | 53 | 0 | 0.0 | 0.0 | 0.00 | 0.00 | 0.00 | 65 | 1016.4 |
| 20260507024024 | 53 | 0 | 0.0 | 1.0 | 0.00 | 0.00 | 0.00 | 65 | 1016.3 |
| 20260507023521 | 54 | 0 | 0.0 | 2.0 | 0.00 | 0.00 | 0.00 | 63 | 1016.2 |
| 20260507023037 | 54 | 0 | 0.0 | 2.0 | 0.00 | 0.00 | 0.00 | 62 | 1016.3 |
| 20260507022521 | 54 | 0 | 0.0 | 3.0 | 0.00 | 0.00 | 0.00 | 62 | 1016.3 |
| 20260507022023 | 54 | 360 | 1.0 | 3.0 | 0.00 | 0.00 | 0.00 | 62 | 1016.2 |
| 20260507021538 | 54 | 360 | 1.0 | 3.0 | 0.00 | 0.00 | 0.00 | 61 | 1016.1 |
| 20260507021021 | 54 | 339 | 1.0 | 3.0 | 0.00 | 0.00 | 0.00 | 60 | 1016.0 |
| 20260507020545 | 54 | 9 | 1.0 | 3.0 | 0.00 | 0.00 | 0.00 | 59 | 1015.9 |
| 20260507020043 | 55 | 9 | 1.0 | 3.0 | 0.00 | 0.00 | 0.00 | 59 | 1015.6 |
| 20260507015521 | 55 | 5 | 1.0 | 3.0 | 0.00 | 0.00 | 0.00 | 58 | 1015.6 |
| 20260507015021 | 55 | 5 | 1.0 | 2.0 | 0.00 | 0.00 | 0.00 | 58 | 1015.6 |
| 20260507014547 | 55 | 5 | 1.0 | 2.0 | 0.00 | 0.00 | 0.00 | 58 | 1015.5 |